Time,TemperatureF,DewpointF,PressureIn,WindDirection,WindDirectionDegrees,WindSpeedMPH,WindSpeedGustMPH,Humidity,HourlyPrecipIn,Conditions,Clouds,dailyrainin,SoftwareType,DateUTC
2014-04-23 00:01:00,39.6,28.4,30.00,NNE,23,3.1,4.7,64,0.00,,,0.00,WUHU216HW,2014-04-23 05:01:00,
2014-04-23 00:06:00,39.4,28.5,30.01,NNE,23,4.0,4.0,65,0.00,,,0.00,WUHU216HW,2014-04-23 05:06:00,
2014-04-23 00:11:00,39.2,28.4,30.01,NE,45,2.9,4.3,65,0.00,,,0.00,WUHU216HW,2014-04-23 05:11:00,
2014-04-23 00:16:00,39.2,28.4,30.01,NNE,23,2.9,4.3,65,0.00,,,0.00,WUHU216HW,2014-04-23 05:16:00,
2014-04-23 00:21:00,38.9,28.0,30.01,NNE,23,1.1,4.0,65,0.00,,,0.00,WUHU216HW,2014-04-23 05:21:00,
2014-04-23 00:26:00,38.5,27.4,30.01,North,0,0.4,2.9,64,0.00,,,0.00,WUHU216HW,2014-04-23 05:26:00,
2014-04-23 00:31:00,38.3,27.9,30.01,NNE,23,2.5,2.7,66,0.00,,,0.00,WUHU216HW,2014-04-23 05:31:00,
2014-04-23 00:36:00,38.2,27.7,30.02,NNE,23,1.8,2.9,66,0.00,,,0.00,WUHU216HW,2014-04-23 05:36:00,
2014-04-23 00:41:00,38.0,28.0,30.02,NNE,23,2.5,3.1,67,0.00,,,0.00,WUHU216HW,2014-04-23 05:41:00,
2014-04-23 00:46:00,37.8,27.8,30.02,North,0,1.1,3.1,67,0.00,,,0.00,WUHU216HW,2014-04-23 05:46:00,
2014-04-23 00:51:00,37.8,28.2,30.02,NNE,23,1.8,2.7,68,0.00,,,0.00,WUHU216HW,2014-04-23 05:51:00,
2014-04-23 00:56:00,37.6,27.6,30.02,NNE,23,1.3,2.7,67,0.00,,,0.00,WUHU216HW,2014-04-23 05:56:00,
2014-04-23 01:01:00,37.4,27.5,30.02,NNE,23,1.1,2.2,67,0.00,,,0.00,WUHU216HW,2014-04-23 06:01:00,
2014-04-23 01:06:00,37.3,27.3,30.02,NNE,23,1.3,2.2,67,0.00,,,0.00,WUHU216HW,2014-04-23 06:06:00,
2014-04-23 01:11:00,36.9,27.4,30.02,NNE,23,1.6,2.2,68,0.00,,,0.00,WUHU216HW,2014-04-23 06:11:00,
2014-04-23 01:16:00,36.7,27.9,30.02,NNE,23,1.1,2.5,70,0.00,,,0.00,WUHU216HW,2014-04-23 06:16:00,
2014-04-23 01:21:00,36.5,28.1,30.02,NNE,23,3.4,3.4,71,0.00,,,0.00,WUHU216HW,2014-04-23 06:21:00,
2014-04-23 01:26:00,36.5,28.1,30.02,NNE,23,1.8,3.4,71,0.00,,,0.00,WUHU216HW,2014-04-23 06:26:00,
2014-04-23 01:31:00,36.4,28.2,30.02,NNE,23,3.4,3.4,72,0.00,,,0.00,WUHU216HW,2014-04-23 06:31:00,
2014-04-23 01:36:00,36.5,28.4,30.02,NNE,23,3.8,3.8,72,0.00,,,0.00,WUHU216HW,2014-04-23 06:36:00,
2014-04-23 01:41:00,36.5,28.4,30.02,NNE,23,2.5,4.5,72,0.00,,,0.00,WUHU216HW,2014-04-23 06:41:00,
2014-04-23 01:46:00,36.5,28.4,30.02,NE,45,3.4,4.5,72,0.00,,,0.00,WUHU216HW,2014-04-23 06:46:00,
2014-04-23 01:51:00,36.5,28.7,30.02,NNE,23,2.7,4.5,73,0.00,,,0.00,WUHU216HW,2014-04-23 06:51:00,
2014-04-23 01:56:00,36.5,28.7,30.02,NNE,23,3.4,4.5,73,0.00,,,0.00,WUHU216HW,2014-04-23 06:56:00,
2014-04-23 02:01:00,36.4,28.5,30.02,NNE,23,3.4,4.0,73,0.00,,,0.00,WUHU216HW,2014-04-23 07:01:00,
2014-04-23 02:06:00,36.4,28.5,30.02,North,0,3.1,4.0,73,0.00,,,0.00,WUHU216HW,2014-04-23 07:06:00,
2014-04-23 02:11:00,36.0,28.2,30.02,NE,45,3.4,4.0,73,0.00,,,0.00,WUHU216HW,2014-04-23 07:11:00,
2014-04-23 02:16:00,35.8,28.0,30.02,NNE,23,1.6,3.4,73,0.00,,,0.00,WUHU216HW,2014-04-23 07:16:00,
2014-04-23 02:21:00,35.6,27.8,30.02,NE,45,1.1,3.4,73,0.00,,,0.00,WUHU216HW,2014-04-23 07:21:00,
2014-04-23 02:26:00,35.3,27.5,30.02,NE,45,1.6,2.2,73,0.00,,,0.00,WUHU216HW,2014-04-23 07:26:00,
2014-04-23 02:31:00,35.1,27.5,30.02,NNE,23,2.5,2.5,74,0.00,,,0.00,WUHU216HW,2014-04-23 07:31:00,
2014-04-23 02:36:00,35.1,27.9,30.01,NNE,23,2.5,3.4,75,0.00,,,0.00,WUHU216HW,2014-04-23 07:36:00,
2014-04-23 02:41:00,34.9,27.4,30.02,North,0,1.6,3.4,74,0.00,,,0.00,WUHU216HW,2014-04-23 07:41:00,
2014-04-23 02:46:00,34.7,27.5,30.02,NNE,23,2.0,2.7,75,0.00,,,0.00,WUHU216HW,2014-04-23 07:46:00,
2014-04-23 02:51:00,34.6,27.4,30.02,NE,45,0.9,2.5,75,0.00,,,0.00,WUHU216HW,2014-04-23 07:51:00,
2014-04-23 02:55:00,34.4,26.6,30.02,NE,45,0.4,2.5,73,0.00,,,0.00,WUHU216HW,2014-04-23 07:55:00,
2014-04-23 03:00:00,33.8,25.7,30.03,NE,45,0.0,1.1,72,0.00,,,0.00,WUHU216HW,2014-04-23 08:00:00,
2014-04-23 03:05:00,33.3,25.2,30.03,NE,45,0.0,0.4,72,0.00,,,0.00,WUHU216HW,2014-04-23 08:05:00,
2014-04-23 03:11:00,32.9,24.8,30.03,NE,45,0.0,0.0,72,0.00,,,0.00,WUHU216HW,2014-04-23 08:11:00,
2014-04-23 03:16:00,32.6,24.6,30.03,NE,45,0.0,0.0,72,0.00,,,0.00,WUHU216HW,2014-04-23 08:16:00,
2014-04-23 03:21:00,32.4,24.4,30.03,NE,45,0.0,0.0,72,0.00,,,0.00,WUHU216HW,2014-04-23 08:21:00,
2014-04-23 03:25:00,32.4,25.7,30.03,NNE,23,1.8,1.8,76,0.00,,,0.00,WUHU216HW,2014-04-23 08:25:00,
2014-04-23 03:30:00,32.9,27.1,30.03,NNE,23,3.4,3.4,79,0.00,,,0.00,WUHU216HW,2014-04-23 08:30:00,
2014-04-23 03:35:00,33.5,27.6,30.03,NE,45,3.1,3.4,79,0.00,,,0.00,WUHU216HW,2014-04-23 08:35:00,
2014-04-23 03:40:00,33.7,27.8,30.02,NNE,23,3.6,4.0,79,0.00,,,0.00,WUHU216HW,2014-04-23 08:40:00,
2014-04-23 03:45:00,34.0,28.1,30.03,North,0,3.4,4.7,79,0.00,,,0.00,WUHU216HW,2014-04-23 08:45:00,
2014-04-23 03:50:00,34.2,28.0,30.03,NNE,23,3.1,4.7,78,0.00,,,0.00,WUHU216HW,2014-04-23 08:50:00,
2014-04-23 03:55:00,34.0,27.8,30.03,NNE,23,1.8,3.6,78,0.00,,,0.00,WUHU216HW,2014-04-23 08:55:00,
2014-04-23 04:00:00,33.8,27.6,30.03,NNE,23,1.6,3.1,78,0.00,,,0.00,WUHU216HW,2014-04-23 09:00:00,
2014-04-23 04:05:00,33.7,27.5,30.03,NNE,23,1.6,2.5,78,0.00,,,0.00,WUHU216HW,2014-04-23 09:05:00,
2014-04-23 04:10:00,33.5,27.3,30.03,NNE,23,2.0,2.7,78,0.00,,,0.00,WUHU216HW,2014-04-23 09:10:00,
2014-04-23 04:15:00,33.3,26.8,30.04,NNE,23,0.0,2.7,77,0.00,,,0.00,WUHU216HW,2014-04-23 09:15:00,
2014-04-23 04:20:00,33.1,26.6,30.04,North,0,1.6,2.0,77,0.00,,,0.00,WUHU216HW,2014-04-23 09:20:00,
2014-04-23 04:25:00,33.1,27.0,30.04,North,0,1.3,1.8,78,0.00,,,0.00,WUHU216HW,2014-04-23 09:25:00,
2014-04-23 04:30:00,33.3,27.1,30.05,North,0,0.4,1.8,78,0.00,,,0.00,WUHU216HW,2014-04-23 09:30:00,
2014-04-23 04:35:00,33.1,26.3,30.05,North,0,0.0,1.3,76,0.00,,,0.00,WUHU216HW,2014-04-23 09:35:00,
2014-04-23 04:40:00,32.8,26.0,30.05,North,0,0.0,0.4,76,0.00,,,0.00,WUHU216HW,2014-04-23 09:40:00,
2014-04-23 04:45:00,32.2,25.5,30.05,West,270,1.1,1.1,76,0.00,,,0.00,WUHU216HW,2014-04-23 09:45:00,
2014-04-23 04:50:00,31.7,25.3,30.05,WSW,248,0.0,1.8,77,0.00,,,0.00,WUHU216HW,2014-04-23 09:50:00,
2014-04-23 04:55:00,31.5,25.5,30.04,North,0,1.6,2.2,78,0.00,,,0.00,WUHU216HW,2014-04-23 09:55:00,
2014-04-23 05:00:00,31.3,25.3,30.05,NW,315,0.0,2.2,78,0.00,,,0.00,WUHU216HW,2014-04-23 10:00:00,
2014-04-23 05:05:00,31.1,24.8,30.05,NW,315,0.0,1.6,77,0.00,,,0.00,WUHU216HW,2014-04-23 10:05:00,
2014-04-23 05:10:00,31.0,24.9,30.05,NW,315,0.0,0.0,78,0.00,,,0.00,WUHU216HW,2014-04-23 10:10:00,
2014-04-23 05:15:00,31.0,24.9,30.05,NW,315,0.0,0.0,78,0.00,,,0.00,WUHU216HW,2014-04-23 10:15:00,
2014-04-23 05:20:00,31.0,24.9,30.05,NNE,23,0.0,2.2,78,0.00,,,0.00,WUHU216HW,2014-04-23 10:20:00,
2014-04-23 05:25:00,30.8,24.8,30.05,North,0,0.0,2.2,78,0.00,,,0.00,WUHU216HW,2014-04-23 10:25:00,
2014-04-23 05:30:00,30.6,24.6,30.05,North,0,1.1,1.3,78,0.00,,,0.00,WUHU216HW,2014-04-23 10:30:00,
2014-04-23 05:35:00,30.6,24.6,30.05,NNE,23,1.3,1.8,78,0.00,,,0.00,WUHU216HW,2014-04-23 10:35:00,
2014-04-23 05:40:00,30.6,26.1,30.04,NNE,23,2.5,3.4,83,0.00,,,0.00,WUHU216HW,2014-04-23 10:40:00,
2014-04-23 05:45:00,31.0,26.5,30.05,NNE,23,1.8,3.4,83,0.00,,,0.00,WUHU216HW,2014-04-23 10:45:00,
2014-04-23 05:50:00,31.3,26.8,30.05,NNE,23,3.4,3.6,83,0.00,,,0.00,WUHU216HW,2014-04-23 10:50:00,
2014-04-23 05:55:00,31.3,26.8,30.05,NE,45,2.0,4.0,83,0.00,,,0.00,WUHU216HW,2014-04-23 10:55:00,
2014-04-23 06:00:00,31.5,27.0,30.05,NE,45,3.4,4.0,83,0.00,,,0.00,WUHU216HW,2014-04-23 11:00:00,
2014-04-23 06:05:00,31.5,27.0,30.05,NNE,23,3.1,4.3,83,0.00,,,0.00,WUHU216HW,2014-04-23 11:05:00,
2014-04-23 06:10:00,31.3,26.5,30.05,NE,45,1.1,4.3,82,0.00,,,0.00,WUHU216HW,2014-04-23 11:10:00,
2014-04-23 06:15:00,31.3,26.8,30.05,NNE,23,1.8,3.1,83,0.00,,,0.00,WUHU216HW,2014-04-23 11:15:00,
2014-04-23 06:20:00,31.3,26.2,30.06,NE,45,0.0,2.2,81,0.00,,,0.00,WUHU216HW,2014-04-23 11:20:00,
2014-04-23 06:25:00,31.3,26.2,30.06,NNE,23,2.5,2.5,81,0.00,,,0.00,WUHU216HW,2014-04-23 11:25:00,
2014-04-23 06:30:00,31.7,27.2,30.06,NE,45,1.8,2.5,83,0.00,,,0.00,WUHU216HW,2014-04-23 11:30:00,
2014-04-23 06:35:00,32.4,27.3,30.06,NE,45,2.7,2.7,81,0.00,,,0.00,WUHU216HW,2014-04-23 11:35:00,
2014-04-23 06:40:00,32.8,27.5,30.05,NNE,23,2.5,3.4,81,0.00,,,0.00,WUHU216HW,2014-04-23 11:40:00,
2014-04-23 06:45:00,33.8,28.5,30.06,NE,45,0.2,3.4,81,0.00,,,0.00,WUHU216HW,2014-04-23 11:45:00,
2014-04-23 06:50:00,35.1,29.5,30.07,NNE,23,0.0,2.9,80,0.00,,,0.00,WUHU216HW,2014-04-23 11:50:00,
2014-04-23 06:55:00,35.6,29.7,30.07,NNE,23,0.0,0.4,79,0.00,,,0.00,WUHU216HW,2014-04-23 11:55:00,
2014-04-23 07:00:00,36.5,30.3,30.07,West,270,1.1,1.1,78,0.00,,,0.00,WUHU216HW,2014-04-23 12:00:00,
2014-04-23 07:05:00,38.9,32.9,30.07,WSW,248,1.1,1.1,79,0.00,,,0.00,WUHU216HW,2014-04-23 12:05:00,
2014-04-23 07:10:00,39.2,32.3,30.07,SW,225,0.9,1.3,76,0.00,,,0.00,WUHU216HW,2014-04-23 12:10:00,
2014-04-23 07:15:00,39.1,31.8,30.07,SW,225,0.0,1.3,75,0.00,,,0.00,WUHU216HW,2014-04-23 12:15:00,
2014-04-23 07:20:00,38.9,31.2,30.07,SE,135,1.3,1.3,74,0.00,,,0.00,WUHU216HW,2014-04-23 12:20:00,
2014-04-23 07:25:00,38.9,31.0,30.07,ESE,113,2.5,2.7,73,0.00,,,0.00,WUHU216HW,2014-04-23 12:25:00,
2014-04-23 07:30:00,38.5,31.0,30.07,ENE,68,2.5,4.0,74,0.00,,,0.00,WUHU216HW,2014-04-23 12:30:00,
2014-04-23 07:35:00,38.5,31.0,30.07,NE,45,2.9,4.0,74,0.00,,,0.00,WUHU216HW,2014-04-23 12:35:00,
2014-04-23 07:40:00,38.7,30.1,30.07,ESE,113,4.5,6.3,71,0.00,,,0.00,WUHU216HW,2014-04-23 12:40:00,
2014-04-23 07:45:00,39.1,29.7,30.07,NE,45,7.2,7.2,69,0.00,,,0.00,WUHU216HW,2014-04-23 12:45:00,
2014-04-23 07:50:00,39.2,28.7,30.06,ESE,113,6.0,8.3,66,0.00,,,0.00,WUHU216HW,2014-04-23 12:50:00,
2014-04-23 07:55:00,39.4,29.7,30.07,NE,45,6.5,8.7,68,0.00,,,0.00,WUHU216HW,2014-04-23 12:55:00,
2014-04-23 08:00:00,39.8,28.2,30.06,NE,45,6.3,13.4,63,0.00,,,0.00,WUHU216HW,2014-04-23 13:00:00,
2014-04-23 08:05:00,39.6,28.4,30.07,East,90,8.5,13.4,64,0.00,,,0.00,WUHU216HW,2014-04-23 13:05:00,
2014-04-23 08:10:00,39.8,28.5,30.07,ENE,68,4.7,11.6,64,0.00,,,0.00,WUHU216HW,2014-04-23 13:10:00,
2014-04-23 08:15:00,40.0,28.7,30.07,East,90,6.5,10.7,64,0.00,,,0.00,WUHU216HW,2014-04-23 13:15:00,
2014-04-23 08:20:00,40.5,29.6,30.07,NNE,23,6.5,8.5,65,0.00,,,0.00,WUHU216HW,2014-04-23 13:20:00,
2014-04-23 08:25:00,40.7,29.1,30.07,NE,45,5.8,8.7,63,0.00,,,0.00,WUHU216HW,2014-04-23 13:25:00,
2014-04-23 08:30:00,41.0,29.0,30.07,ENE,68,5.4,9.6,62,0.00,,,0.00,WUHU216HW,2014-04-23 13:30:00,
2014-04-23 08:35:00,41.4,29.7,30.07,East,90,4.7,9.6,63,0.00,,,0.00,WUHU216HW,2014-04-23 13:35:00,
2014-04-23 08:40:00,41.8,30.1,30.07,ESE,113,4.9,8.7,63,0.00,,,0.00,WUHU216HW,2014-04-23 13:40:00,
2014-04-23 08:45:00,42.1,30.0,30.07,ENE,68,5.1,7.6,62,0.00,,,0.00,WUHU216HW,2014-04-23 13:45:00,
2014-04-23 08:50:00,42.5,29.5,30.07,ESE,113,4.0,7.6,60,0.00,,,0.00,WUHU216HW,2014-04-23 13:50:00,
2014-04-23 08:55:00,42.8,29.9,30.07,ESE,113,6.3,7.4,60,0.00,,,0.00,WUHU216HW,2014-04-23 13:55:00,
2014-04-23 09:00:00,43.0,30.1,30.07,SE,135,5.8,6.9,60,0.00,,,0.00,WUHU216HW,2014-04-23 14:00:00,
2014-04-23 09:05:00,42.8,29.0,30.07,East,90,4.0,6.7,58,0.00,,,0.00,WUHU216HW,2014-04-23 14:05:00,
2014-04-23 09:10:00,42.7,29.7,30.07,NE,45,4.9,6.7,60,0.00,,,0.00,WUHU216HW,2014-04-23 14:10:00,
2014-04-23 09:15:00,43.0,30.1,30.07,NNE,23,5.6,6.5,60,0.00,,,0.00,WUHU216HW,2014-04-23 14:15:00,
2014-04-23 09:20:00,43.6,31.0,30.07,SE,135,4.0,6.5,61,0.00,,,0.00,WUHU216HW,2014-04-23 14:20:00,
2014-04-23 09:25:00,44.1,31.1,30.07,ENE,68,2.7,6.9,60,0.00,,,0.00,WUHU216HW,2014-04-23 14:25:00,
2014-04-23 09:30:00,44.1,30.7,30.07,East,90,4.5,6.9,59,0.00,,,0.00,WUHU216HW,2014-04-23 14:30:00,
2014-04-23 09:35:00,44.6,31.7,30.07,NNE,23,1.8,5.4,60,0.00,,,0.00,WUHU216HW,2014-04-23 14:35:00,
2014-04-23 09:40:00,45.2,30.3,30.07,ESE,113,7.6,8.3,56,0.00,,,0.00,WUHU216HW,2014-04-23 14:40:00,
2014-04-23 09:45:00,45.0,29.4,30.08,SE,135,4.5,8.3,54,0.00,,,0.00,WUHU216HW,2014-04-23 14:45:00,
2014-04-23 09:50:00,45.2,29.0,30.07,ENE,68,4.3,8.1,53,0.00,,,0.00,WUHU216HW,2014-04-23 14:50:00,
2014-04-23 09:55:00,45.4,30.1,30.07,NE,45,3.4,5.6,55,0.00,,,0.00,WUHU216HW,2014-04-23 14:55:00,
2014-04-23 10:00:00,45.5,29.3,30.07,SE,135,1.8,7.6,53,0.00,,,0.00,WUHU216HW,2014-04-23 15:00:00,
2014-04-23 10:05:00,46.3,29.5,30.07,ESE,113,3.8,7.6,52,0.00,,,0.00,WUHU216HW,2014-04-23 15:05:00,
2014-04-23 10:10:00,46.3,29.1,30.08,NE,45,4.7,7.4,51,0.00,,,0.00,WUHU216HW,2014-04-23 15:10:00,
2014-04-23 10:15:00,46.4,31.1,30.07,SE,135,5.6,5.8,55,0.00,,,0.00,WUHU216HW,2014-04-23 15:15:00,
2014-04-23 10:20:00,46.8,30.5,30.07,SE,135,3.6,7.4,53,0.00,,,0.00,WUHU216HW,2014-04-23 15:20:00,
2014-04-23 10:25:00,47.2,30.3,30.07,ESE,113,3.4,7.4,52,0.00,,,0.00,WUHU216HW,2014-04-23 15:25:00,
2014-04-23 10:30:00,47.2,29.9,30.07,ESE,113,3.6,6.9,51,0.00,,,0.00,WUHU216HW,2014-04-23 15:30:00,
2014-04-23 10:35:00,47.3,30.5,30.07,SE,135,3.1,6.9,52,0.00,,,0.00,WUHU216HW,2014-04-23 15:35:00,
2014-04-23 10:40:00,47.5,30.3,30.07,ESE,113,6.5,6.9,51,0.00,,,0.00,WUHU216HW,2014-04-23 15:40:00,
2014-04-23 10:45:00,47.7,31.3,30.07,East,90,0.7,7.4,53,0.00,,,0.00,WUHU216HW,2014-04-23 15:45:00,
2014-04-23 10:50:00,48.4,31.5,30.07,WSW,248,1.1,7.4,52,0.00,,,0.00,WUHU216HW,2014-04-23 15:50:00,
2014-04-23 10:55:00,48.6,31.2,30.07,South,180,1.1,3.1,51,0.00,,,0.00,WUHU216HW,2014-04-23 15:55:00,
2014-04-23 11:00:00,49.1,32.2,30.07,SSW,203,0.9,5.4,52,0.00,,,0.00,WUHU216HW,2014-04-23 16:00:00,
2014-04-23 11:05:00,49.7,30.8,30.07,SE,135,3.1,8.3,48,0.00,,,0.00,WUHU216HW,2014-04-23 16:05:00,
2014-04-23 11:10:00,49.5,30.6,30.07,SE,135,1.1,8.3,48,0.00,,,0.00,WUHU216HW,2014-04-23 16:10:00,
2014-04-23 11:15:00,50.0,31.2,30.07,East,90,2.2,8.3,48,0.00,,,0.00,WUHU216HW,2014-04-23 16:15:00,
2014-04-23 11:20:00,50.0,31.2,30.07,SSW,203,5.4,8.3,48,0.00,,,0.00,WUHU216HW,2014-04-23 16:20:00,
2014-04-23 11:25:00,50.2,31.2,30.07,ESE,113,6.7,7.2,48,0.00,,,0.00,WUHU216HW,2014-04-23 16:25:00,
2014-04-23 11:30:00,50.6,32.7,30.07,ESE,113,1.3,7.2,50,0.00,,,0.00,WUHU216HW,2014-04-23 16:30:00,
2014-04-23 11:35:00,50.9,32.0,30.07,SE,135,4.0,7.8,48,0.00,,,0.00,WUHU216HW,2014-04-23 16:35:00,
2014-04-23 11:40:00,51.5,31.3,30.07,ESE,113,4.7,8.5,46,0.00,,,0.00,WUHU216HW,2014-04-23 16:40:00,
2014-04-23 11:45:00,51.7,30.9,30.07,SSW,203,2.0,10.5,45,0.00,,,0.00,WUHU216HW,2014-04-23 16:45:00,
2014-04-23 11:50:00,51.5,31.9,30.07,ESE,113,1.8,10.5,47,0.00,,,0.00,WUHU216HW,2014-04-23 16:50:00,
2014-04-23 11:55:00,51.7,29.8,30.07,ESE,113,11.0,11.4,43,0.00,,,0.00,WUHU216HW,2014-04-23 16:55:00,
2014-04-23 12:00:00,51.8,30.0,30.06,ESE,113,6.9,11.4,43,0.00,,,0.00,WUHU216HW,2014-04-23 17:00:00,
2014-04-23 12:05:00,51.3,29.4,30.06,ESE,113,5.8,10.3,43,0.00,,,0.00,WUHU216HW,2014-04-23 17:05:00,
2014-04-23 12:10:00,51.5,29.6,30.07,East,90,5.1,9.4,43,0.00,,,0.00,WUHU216HW,2014-04-23 17:10:00,
2014-04-23 12:15:00,52.0,30.1,30.07,ESE,113,7.6,9.4,43,0.00,,,0.00,WUHU216HW,2014-04-23 17:15:00,
2014-04-23 12:20:00,52.2,29.2,30.07,ESE,113,4.7,8.5,41,0.00,,,0.00,WUHU216HW,2014-04-23 17:20:00,
2014-04-23 12:25:00,52.7,32.4,30.06,SSW,203,3.4,8.1,46,0.00,,,0.00,WUHU216HW,2014-04-23 17:25:00,
2014-04-23 12:30:00,53.5,31.4,30.06,SSW,203,4.0,8.1,43,0.00,,,0.00,WUHU216HW,2014-04-23 17:30:00,
2014-04-23 12:35:00,53.5,30.2,30.06,ENE,68,5.6,10.1,41,0.00,,,0.00,WUHU216HW,2014-04-23 17:35:00,
2014-04-23 12:40:00,53.3,31.2,30.06,SE,135,2.2,10.1,43,0.00,,,0.00,WUHU216HW,2014-04-23 17:40:00,
2014-04-23 12:44:00,53.6,30.4,30.06,NNE,23,6.3,9.8,41,0.00,,,0.00,WUHU216HW,2014-04-23 17:44:00,
2014-04-23 12:49:00,53.3,29.5,30.05,NE,45,8.1,10.3,40,0.00,,,0.00,WUHU216HW,2014-04-23 17:49:00,
2014-04-23 12:54:00,52.9,31.5,30.04,SW,225,6.0,14.1,44,0.00,,,0.00,WUHU216HW,2014-04-23 17:54:00,
2014-04-23 12:59:00,52.9,29.8,30.05,NE,45,5.6,14.1,41,0.00,,,0.00,WUHU216HW,2014-04-23 17:59:00,
2014-04-23 13:04:00,52.9,29.8,30.04,NE,45,6.7,11.2,41,0.00,,,0.00,WUHU216HW,2014-04-23 18:04:00,
2014-04-23 13:09:00,53.3,30.2,30.04,ENE,68,3.4,9.8,41,0.00,,,0.00,WUHU216HW,2014-04-23 18:09:00,
2014-04-23 13:14:00,54.0,31.3,30.04,ESE,113,4.0,9.8,42,0.00,,,0.00,WUHU216HW,2014-04-23 18:14:00,
2014-04-23 13:19:00,55.1,31.1,30.04,SE,135,5.4,8.7,40,0.00,,,0.00,WUHU216HW,2014-04-23 18:19:00,
2014-04-23 13:24:00,55.1,30.5,30.04,ESE,113,7.8,7.8,39,0.00,,,0.00,WUHU216HW,2014-04-23 18:24:00,
2014-04-23 13:29:00,55.1,31.8,30.04,ENE,68,5.4,7.8,41,0.00,,,0.00,WUHU216HW,2014-04-23 18:29:00,
2014-04-23 13:34:00,53.8,30.1,30.04,ENE,68,9.2,11.0,40,0.00,,,0.00,WUHU216HW,2014-04-23 18:34:00,
2014-04-23 13:39:00,54.0,30.3,30.04,NE,45,3.8,11.0,40,0.00,,,0.00,WUHU216HW,2014-04-23 18:39:00,
2014-04-23 13:44:00,54.5,30.7,30.04,ESE,113,6.7,9.4,40,0.00,,,0.00,WUHU216HW,2014-04-23 18:44:00,
2014-04-23 13:49:00,54.7,30.9,30.03,ESE,113,4.7,8.7,40,0.00,,,0.00,WUHU216HW,2014-04-23 18:49:00,
2014-04-23 13:54:00,54.5,30.0,30.03,SE,135,5.4,8.7,39,0.00,,,0.00,WUHU216HW,2014-04-23 18:54:00,
2014-04-23 13:59:00,55.3,30.6,30.03,SE,135,10.5,10.5,39,0.00,,,0.00,WUHU216HW,2014-04-23 18:59:00,
2014-04-23 14:04:00,55.8,29.7,30.03,NE,45,10.1,13.0,37,0.00,,,0.00,WUHU216HW,2014-04-23 19:04:00,
2014-04-23 14:09:00,55.6,30.2,30.03,NE,45,3.1,13.0,38,0.00,,,0.00,WUHU216HW,2014-04-23 19:09:00,
2014-04-23 14:14:00,56.3,30.9,30.03,East,90,7.6,11.4,38,0.00,,,0.00,WUHU216HW,2014-04-23 19:14:00,
2014-04-23 14:19:00,56.3,30.3,30.03,ESE,113,8.7,11.4,37,0.00,,,0.00,WUHU216HW,2014-04-23 19:19:00,
2014-04-23 14:24:00,56.3,30.3,30.03,SE,135,6.5,9.8,37,0.00,,,0.00,WUHU216HW,2014-04-23 19:24:00,
2014-04-23 14:29:00,56.2,30.1,30.03,ENE,68,6.7,9.2,37,0.00,,,0.00,WUHU216HW,2014-04-23 19:29:00,
2014-04-23 14:34:00,56.2,30.8,30.02,SE,135,10.1,10.1,38,0.00,,,0.00,WUHU216HW,2014-04-23 19:34:00,
2014-04-23 14:39:00,56.7,31.2,30.02,ESE,113,4.0,10.1,38,0.00,,,0.00,WUHU216HW,2014-04-23 19:39:00,
2014-04-23 14:44:00,57.2,31.1,30.02,SE,135,12.8,12.8,37,0.00,,,0.00,WUHU216HW,2014-04-23 19:44:00,
2014-04-23 14:49:00,57.8,33.6,30.01,ESE,113,5.6,12.8,40,0.00,,,0.00,WUHU216HW,2014-04-23 19:49:00,
2014-04-23 14:54:00,58.0,32.4,30.01,ESE,113,5.8,12.8,38,0.00,,,0.00,WUHU216HW,2014-04-23 19:54:00,
2014-04-23 14:59:00,57.8,30.1,30.01,East,90,7.4,10.7,35,0.00,,,0.00,WUHU216HW,2014-04-23 19:59:00,
2014-04-23 15:04:00,57.2,31.1,30.01,ESE,113,3.1,10.7,37,0.00,,,0.00,WUHU216HW,2014-04-23 20:04:00,
2014-04-23 15:09:00,57.6,32.0,30.01,SSW,203,3.1,7.6,38,0.00,,,0.00,WUHU216HW,2014-04-23 20:09:00,
2014-04-23 15:14:00,57.6,31.3,30.01,ESE,113,7.2,8.7,37,0.00,,,0.00,WUHU216HW,2014-04-23 20:14:00,
2014-04-23 15:19:00,57.4,31.9,30.01,ESE,113,7.2,8.7,38,0.00,,,0.00,WUHU216HW,2014-04-23 20:19:00,
2014-04-23 15:24:00,57.2,31.7,30.01,ESE,113,6.7,9.8,38,0.00,,,0.00,WUHU216HW,2014-04-23 20:24:00,
2014-04-23 15:29:00,56.9,31.4,30.01,East,90,5.6,9.8,38,0.00,,,0.00,WUHU216HW,2014-04-23 20:29:00,
2014-04-23 15:34:00,56.9,30.7,30.01,East,90,7.6,10.5,37,0.00,,,0.00,WUHU216HW,2014-04-23 20:34:00,
2014-04-23 15:39:00,56.7,31.2,30.01,East,90,4.0,10.5,38,0.00,,,0.00,WUHU216HW,2014-04-23 20:39:00,
2014-04-23 15:44:00,56.9,31.4,30.01,SE,135,4.3,10.3,38,0.00,,,0.00,WUHU216HW,2014-04-23 20:44:00,
2014-04-23 15:49:00,57.4,31.9,30.01,SE,135,7.2,10.3,38,0.00,,,0.00,WUHU216HW,2014-04-23 20:49:00,
2014-04-23 15:54:00,57.6,32.0,30.00,ESE,113,5.6,10.3,38,0.00,,,0.00,WUHU216HW,2014-04-23 20:54:00,
2014-04-23 15:59:00,57.6,31.3,30.01,ESE,113,8.1,9.8,37,0.00,,,0.00,WUHU216HW,2014-04-23 20:59:00,
2014-04-23 16:04:00,57.4,32.6,30.00,SSW,203,6.5,9.8,39,0.00,,,0.00,WUHU216HW,2014-04-23 21:04:00,
2014-04-23 16:09:00,57.2,31.1,30.00,SSE,158,6.7,11.4,37,0.00,,,0.00,WUHU216HW,2014-04-23 21:09:00,
2014-04-23 16:14:00,56.9,31.4,30.00,ESE,113,4.5,11.4,38,0.00,,,0.00,WUHU216HW,2014-04-23 21:14:00,
2014-04-23 16:19:00,56.9,30.7,30.00,ESE,113,6.3,8.9,37,0.00,,,0.00,WUHU216HW,2014-04-23 21:19:00,
2014-04-23 16:24:00,56.7,30.5,30.00,SE,135,5.4,8.3,37,0.00,,,0.00,WUHU216HW,2014-04-23 21:24:00,
2014-04-23 16:29:00,56.9,31.4,30.00,SSW,203,4.0,8.3,38,0.00,,,0.00,WUHU216HW,2014-04-23 21:29:00,
2014-04-23 16:34:00,56.9,30.7,30.00,SE,135,4.0,9.6,37,0.00,,,0.00,WUHU216HW,2014-04-23 21:34:00,
2014-04-23 16:39:00,56.5,31.8,29.99,ESE,113,5.6,9.6,39,0.00,,,0.00,WUHU216HW,2014-04-23 21:39:00,
2014-04-23 16:44:00,56.2,30.1,29.99,SE,135,7.4,9.4,37,0.00,,,0.00,WUHU216HW,2014-04-23 21:44:00,
2014-04-23 16:49:00,55.8,30.4,29.99,SE,135,4.0,9.4,38,0.00,,,0.00,WUHU216HW,2014-04-23 21:49:00,
2014-04-23 16:54:00,55.6,30.2,29.99,SSE,158,8.1,12.1,38,0.00,,,0.00,WUHU216HW,2014-04-23 21:54:00,
2014-04-23 16:59:00,55.4,31.5,29.99,SE,135,3.4,12.1,40,0.00,,,0.00,WUHU216HW,2014-04-23 21:59:00,
2014-04-23 17:03:00,55.4,32.0,29.99,SSW,203,3.1,8.1,41,0.00,,,0.00,WUHU216HW,2014-04-23 22:03:00,
2014-04-23 17:09:00,55.8,31.9,29.99,SSE,158,4.5,6.3,40,0.00,,,0.00,WUHU216HW,2014-04-23 22:09:00,
2014-04-23 17:14:00,55.4,31.5,29.99,SSE,158,4.7,6.5,40,0.00,,,0.00,WUHU216HW,2014-04-23 22:14:00,
2014-04-23 17:19:00,55.3,31.3,29.99,SSW,203,3.4,6.5,40,0.00,,,0.00,WUHU216HW,2014-04-23 22:19:00,
2014-04-23 17:23:00,55.1,31.1,29.99,SSW,203,6.3,7.4,40,0.00,,,0.00,WUHU216HW,2014-04-23 22:23:00,
2014-04-23 17:28:00,54.5,30.7,29.99,ESE,113,7.6,9.2,40,0.00,,,0.00,WUHU216HW,2014-04-23 22:28:00,
2014-04-23 17:33:00,54.5,30.7,29.99,SSE,158,7.2,9.2,40,0.00,,,0.00,WUHU216HW,2014-04-23 22:33:00,
2014-04-23 17:38:00,54.2,29.7,29.99,SE,135,8.5,9.2,39,0.00,,,0.00,WUHU216HW,2014-04-23 22:38:00,
2014-04-23 17:43:00,54.0,30.8,29.99,SE,135,4.7,9.2,41,0.00,,,0.00,WUHU216HW,2014-04-23 22:43:00,
2014-04-23 17:48:00,53.6,29.9,29.99,SE,135,7.6,8.5,40,0.00,,,0.00,WUHU216HW,2014-04-23 22:48:00,
2014-04-23 17:53:00,53.6,29.9,29.99,South,180,3.6,9.8,40,0.00,,,0.00,WUHU216HW,2014-04-23 22:53:00,
2014-04-23 17:58:00,53.3,29.5,29.99,SSE,158,6.3,9.8,40,0.00,,,0.00,WUHU216HW,2014-04-23 22:58:00,
2014-04-23 18:03:00,53.1,29.4,29.99,SE,135,5.4,8.9,40,0.00,,,0.00,WUHU216HW,2014-04-23 23:03:00,
2014-04-23 18:08:00,52.9,29.8,29.99,SE,135,7.6,8.9,41,0.00,,,0.00,WUHU216HW,2014-04-23 23:08:00,
2014-04-23 18:13:00,52.9,29.3,29.99,SE,135,8.1,8.1,40,0.00,,,0.00,WUHU216HW,2014-04-23 23:13:00,
2014-04-23 18:18:00,52.9,29.3,29.99,SE,135,8.5,9.2,40,0.00,,,0.00,WUHU216HW,2014-04-23 23:18:00,
2014-04-23 18:23:00,52.6,28.9,29.99,SE,135,7.6,9.2,40,0.00,,,0.00,WUHU216HW,2014-04-23 23:23:00,
2014-04-23 18:28:00,52.6,28.9,29.99,SSE,158,4.9,9.2,40,0.00,,,0.00,WUHU216HW,2014-04-23 23:28:00,
2014-04-23 18:33:00,52.2,29.2,29.99,ESE,113,4.0,9.2,41,0.00,,,0.00,WUHU216HW,2014-04-23 23:33:00,
2014-04-23 18:38:00,52.2,29.2,29.99,SSE,158,4.9,9.2,41,0.00,,,0.00,WUHU216HW,2014-04-23 23:38:00,
2014-04-23 18:43:00,52.2,30.2,29.99,SSE,158,4.5,9.2,43,0.00,,,0.00,WUHU216HW,2014-04-23 23:43:00,
2014-04-23 18:48:00,51.5,30.7,29.99,SSW,203,4.0,11.4,45,0.00,,,0.00,WUHU216HW,2014-04-23 23:48:00,
2014-04-23 18:53:00,50.8,32.9,29.99,SW,225,3.4,11.4,50,0.00,,,0.00,WUHU216HW,2014-04-23 23:53:00,
2014-04-23 18:58:00,50.4,33.5,29.99,SSW,203,4.7,6.3,52,0.00,,,0.00,WUHU216HW,2014-04-23 23:58:00,
2014-04-23 19:03:00,49.9,32.5,29.99,SSW,203,2.5,6.3,51,0.00,,,0.00,WUHU216HW,2014-04-24 00:03:00,
2014-04-23 19:08:00,49.5,33.0,29.99,SE,135,6.5,6.9,53,0.00,,,0.00,WUHU216HW,2014-04-24 00:08:00,
2014-04-23 19:13:00,49.3,32.9,29.98,SE,135,3.8,6.9,53,0.00,,,0.00,WUHU216HW,2014-04-24 00:13:00,
2014-04-23 19:18:00,49.1,32.7,29.98,SE,135,4.0,6.5,53,0.00,,,0.00,WUHU216HW,2014-04-24 00:18:00,
2014-04-23 19:23:00,49.0,32.0,29.98,SE,135,5.4,7.6,52,0.00,,,0.00,WUHU216HW,2014-04-24 00:23:00,
2014-04-23 19:28:00,48.6,33.1,29.98,SE,135,6.5,9.2,55,0.01,,,0.01,WUHU216HW,2014-04-24 00:28:00,
2014-04-23 19:33:00,48.2,34.2,29.97,ESE,113,3.4,9.2,58,0.01,,,0.01,WUHU216HW,2014-04-24 00:33:00,
2014-04-23 19:38:00,47.9,33.4,29.96,ESE,113,6.5,7.8,57,0.01,,,0.01,WUHU216HW,2014-04-24 00:38:00,
2014-04-23 19:43:00,47.5,33.9,29.96,ESE,113,6.9,7.8,59,0.01,,,0.01,WUHU216HW,2014-04-24 00:43:00,
2014-04-23 19:48:00,47.3,34.2,29.96,ESE,113,3.1,7.6,60,0.01,,,0.01,WUHU216HW,2014-04-24 00:48:00,
2014-04-23 19:53:00,47.2,34.0,29.96,ENE,68,4.7,6.9,60,0.01,,,0.01,WUHU216HW,2014-04-24 00:53:00,
2014-04-23 19:58:00,47.0,33.8,29.95,ESE,113,6.3,7.8,60,0.01,,,0.01,WUHU216HW,2014-04-24 00:58:00,
2014-04-23 20:03:00,46.8,33.2,29.95,ESE,113,8.7,11.0,59,0.01,,,0.01,WUHU216HW,2014-04-24 01:03:00,
2014-04-23 20:08:00,46.4,33.7,29.95,East,90,5.6,11.0,61,0.02,,,0.02,WUHU216HW,2014-04-24 01:08:00,
2014-04-23 20:13:00,46.3,33.1,29.95,ENE,68,7.4,8.3,60,0.02,,,0.02,WUHU216HW,2014-04-24 01:13:00,
2014-04-23 20:18:00,46.1,33.4,29.94,ESE,113,7.4,8.7,61,0.02,,,0.02,WUHU216HW,2014-04-24 01:18:00,
2014-04-23 20:23:00,45.7,33.4,29.94,ENE,68,6.7,8.7,62,0.02,,,0.02,WUHU216HW,2014-04-24 01:23:00,
2014-04-23 20:28:00,45.5,33.3,29.94,ENE,68,10.5,11.2,62,0.01,,,0.02,WUHU216HW,2014-04-24 01:28:00,
2014-04-23 20:33:00,45.0,32.8,29.93,East,90,8.9,13.4,62,0.01,,,0.02,WUHU216HW,2014-04-24 01:33:00,
2014-04-23 20:38:00,45.0,32.4,29.93,East,90,12.1,13.4,61,0.01,,,0.02,WUHU216HW,2014-04-24 01:38:00,
2014-04-23 20:43:00,45.0,32.1,29.93,ENE,68,9.2,12.1,60,0.01,,,0.02,WUHU216HW,2014-04-24 01:43:00,
2014-04-23 20:48:00,44.8,31.9,29.93,East,90,9.6,12.1,60,0.01,,,0.02,WUHU216HW,2014-04-24 01:48:00,
2014-04-23 20:53:00,44.8,31.4,29.93,East,90,7.6,12.3,59,0.01,,,0.02,WUHU216HW,2014-04-24 01:53:00,
2014-04-23 20:58:00,44.8,30.5,29.93,ESE,113,8.9,12.3,57,0.01,,,0.02,WUHU216HW,2014-04-24 01:58:00,
2014-04-23 21:03:00,44.8,31.0,29.93,East,90,6.3,11.2,58,0.01,,,0.02,WUHU216HW,2014-04-24 02:03:00,
2014-04-23 21:08:00,44.8,31.0,29.94,East,90,6.9,11.2,58,0.00,,,0.02,WUHU216HW,2014-04-24 02:08:00,
2014-04-23 21:13:00,44.6,30.8,29.93,East,90,6.3,9.8,58,0.00,,,0.02,WUHU216HW,2014-04-24 02:13:00,